Time,TemperatureF,DewpointF,PressureIn,WindDirection,WindDirectionDegrees,WindSpeedMPH,WindSpeedGustMPH,Humidity,HourlyPrecipIn,Conditions,Clouds,dailyrainin,SoftwareType,DateUTC
2013-08-26 00:03:00,63.7,52.5,29.85,SE,124,0.0,0.0,67,0.00,,CLR,0.00,VWS V14.01,2013-08-26 07:03:00,
2013-08-26 00:09:00,63.7,52.5,29.85,SE,124,0.0,0.0,67,0.00,,CLR,0.00,VWS V14.01,2013-08-26 07:09:00,
2013-08-26 00:14:00,63.7,52.5,29.85,ESE,123,0.0,0.0,67,0.00,,CLR,0.00,VWS V14.01,2013-08-26 07:14:00,
2013-08-26 00:20:00,63.7,52.5,29.85,SE,124,0.0,0.0,67,0.00,,CLR,0.00,VWS V14.01,2013-08-26 07:20:00,
2013-08-26 00:25:00,63.7,52.5,29.85,SE,124,0.0,0.0,67,0.00,,CLR,0.00,VWS V14.01,2013-08-26 07:25:00,
2013-08-26 00:30:00,63.7,52.5,29.85,SE,124,0.0,0.0,67,0.00,,CLR,0.00,VWS V14.01,2013-08-26 07:30:00,
2013-08-26 00:35:00,63.7,52.5,29.85,ESE,123,0.0,0.0,67,0.00,,CLR,0.00,VWS V14.01,2013-08-26 07:35:00,
2013-08-26 00:41:00,63.7,52.5,29.85,SE,124,0.0,0.0,67,0.00,,CLR,0.00,VWS V14.01,2013-08-26 07:41:00,
2013-08-26 00:46:00,63.5,52.3,29.85,SE,124,0.0,0.0,67,0.00,,CLR,0.00,VWS V14.01,2013-08-26 07:46:00,
2013-08-26 00:52:00,63.7,52.9,29.85,SE,124,0.0,0.0,68,0.00,,CLR,0.00,VWS V14.01,2013-08-26 07:52:00,
2013-08-26 00:57:00,63.7,52.9,29.85,ESE,123,0.0,0.0,68,0.00,,CLR,0.00,VWS V14.01,2013-08-26 07:57:00,
2013-08-26 01:03:00,63.7,52.9,29.85,SE,124,0.0,0.0,68,0.00,,CLR,0.00,VWS V14.01,2013-08-26 08:03:00,
2013-08-26 01:09:00,63.5,52.7,29.85,SE,124,0.0,0.0,68,0.00,,CLR,0.00,VWS V14.01,2013-08-26 08:09:00,
2013-08-26 01:14:00,63.5,52.7,29.85,SE,124,0.0,0.0,68,0.00,,CLR,0.00,VWS V14.01,2013-08-26 08:14:00,
2013-08-26 01:19:00,63.7,52.9,29.85,SE,124,0.0,0.0,68,0.00,,CLR,0.00,VWS V14.01,2013-08-26 08:19:00,
2013-08-26 01:25:00,63.7,53.3,29.85,SE,124,0.0,3.6,69,0.00,,CLR,0.00,VWS V14.01,2013-08-26 08:25:00,
2013-08-26 01:31:00,63.7,52.9,29.83,SE,124,4.0,4.0,68,0.00,,CLR,0.00,VWS V14.01,2013-08-26 08:31:00,
2013-08-26 01:37:00,63.5,52.7,29.83,SE,124,0.0,0.0,68,0.00,,CLR,0.00,VWS V14.01,2013-08-26 08:37:00,
2013-08-26 01:42:00,63.5,52.7,29.83,SE,124,0.0,0.0,68,0.00,,CLR,0.00,VWS V14.01,2013-08-26 08:42:00,
2013-08-26 01:47:00,63.5,52.7,29.85,SE,124,0.0,0.0,68,0.00,,CLR,0.00,VWS V14.01,2013-08-26 08:47:00,
2013-08-26 01:53:00,63.5,52.7,29.85,SE,124,0.0,0.0,68,0.00,,CLR,0.00,VWS V14.01,2013-08-26 08:53:00,
2013-08-26 01:59:00,63.3,52.6,29.85,SE,124,0.0,0.0,68,0.00,,CLR,0.00,VWS V14.01,2013-08-26 08:59:00,
2013-08-26 02:04:00,63.3,52.6,29.85,SE,124,0.0,0.0,68,0.00,,CLR,0.00,VWS V14.01,2013-08-26 09:04:00,
2013-08-26 02:09:00,63.5,53.1,29.85,ESE,123,2.7,3.6,69,0.00,,CLR,0.00,VWS V14.01,2013-08-26 09:09:00,
2013-08-26 02:15:00,63.5,53.1,29.85,SE,124,0.0,0.0,69,0.00,,CLR,0.00,VWS V14.01,2013-08-26 09:15:00,
2013-08-26 02:20:00,63.5,53.1,29.85,SE,124,0.0,0.0,69,0.00,,CLR,0.00,VWS V14.01,2013-08-26 09:20:00,
2013-08-26 02:25:00,63.3,53.0,29.85,SE,124,0.0,0.0,69,0.00,,CLR,0.00,VWS V14.01,2013-08-26 09:25:00,
2013-08-26 02:30:00,63.3,53.0,29.85,ESE,123,0.0,0.0,69,0.00,,CLR,0.00,VWS V14.01,2013-08-26 09:30:00,
2013-08-26 02:36:00,63.1,52.8,29.85,SE,124,0.0,0.0,69,0.00,,CLR,0.00,VWS V14.01,2013-08-26 09:36:00,
2013-08-26 02:41:00,63.1,52.8,29.85,SE,124,0.0,0.0,69,0.00,,CLR,0.00,VWS V14.01,2013-08-26 09:41:00,
2013-08-26 02:47:00,62.9,52.2,29.85,ESE,123,0.0,0.0,68,0.00,,CLR,0.00,VWS V14.01,2013-08-26 09:47:00,
2013-08-26 02:52:00,62.9,52.6,29.85,SE,124,0.0,0.0,69,0.00,,CLR,0.00,VWS V14.01,2013-08-26 09:52:00,
2013-08-26 02:58:00,62.8,52.1,29.85,SE,124,0.0,0.0,68,0.00,,CLR,0.00,VWS V14.01,2013-08-26 09:58:00,
2013-08-26 03:03:00,62.8,52.1,29.85,SE,124,0.0,0.0,68,0.00,,CLR,0.00,VWS V14.01,2013-08-26 10:03:00,
2013-08-26 03:09:00,62.8,52.5,29.85,ESE,123,0.0,0.0,69,0.00,,CLR,0.00,VWS V14.01,2013-08-26 10:09:00,
2013-08-26 03:15:00,62.6,52.3,29.85,SE,124,0.0,0.0,69,0.00,,CLR,0.00,VWS V14.01,2013-08-26 10:15:00,
2013-08-26 03:20:00,62.6,52.3,29.85,ESE,123,0.0,0.0,69,0.00,,CLR,0.00,VWS V14.01,2013-08-26 10:20:00,
2013-08-26 03:26:00,62.8,52.5,29.85,SE,124,0.0,0.0,69,0.00,,CLR,0.00,VWS V14.01,2013-08-26 10:26:00,
2013-08-26 03:31:00,62.8,52.5,29.85,SE,124,0.0,0.0,69,0.00,,CLR,0.00,VWS V14.01,2013-08-26 10:31:00,
2013-08-26 03:36:00,62.8,52.5,29.85,ESE,123,0.0,0.0,69,0.00,,CLR,0.00,VWS V14.01,2013-08-26 10:36:00,
2013-08-26 03:41:00,62.8,52.5,29.85,SE,124,0.0,0.0,69,0.00,,CLR,0.00,VWS V14.01,2013-08-26 10:41:00,
2013-08-26 03:47:00,62.8,52.5,29.85,SE,124,2.2,2.2,69,0.00,,CLR,0.00,VWS V14.01,2013-08-26 10:47:00,
2013-08-26 03:52:00,63.1,53.2,29.85,SE,124,0.0,0.0,70,0.00,,CLR,0.00,VWS V14.01,2013-08-26 10:52:00,
2013-08-26 03:58:00,63.1,53.2,29.85,SE,124,0.0,0.0,70,0.00,,CLR,0.00,VWS V14.01,2013-08-26 10:58:00,
2013-08-26 04:03:00,63.1,53.2,29.85,SE,124,0.0,0.0,70,0.00,,CLR,0.00,VWS V14.01,2013-08-26 11:03:00,
2013-08-26 04:08:00,63.1,53.6,29.85,SE,124,0.0,0.0,71,0.00,,CLR,0.00,VWS V14.01,2013-08-26 11:08:00,
2013-08-26 04:14:00,63.3,54.1,29.85,SE,124,2.7,2.7,72,0.00,,CLR,0.00,VWS V14.01,2013-08-26 11:14:00,
2013-08-26 04:20:00,63.3,54.5,29.85,ESE,123,0.0,0.0,73,0.00,,CLR,0.00,VWS V14.01,2013-08-26 11:20:00,
2013-08-26 04:26:00,63.3,54.9,29.85,SE,124,0.0,3.1,74,0.00,,CLR,0.00,VWS V14.01,2013-08-26 11:26:00,
2013-08-26 04:31:00,63.3,54.9,29.85,SE,124,0.0,3.1,74,0.00,,CLR,0.00,VWS V14.01,2013-08-26 11:31:00,
2013-08-26 04:36:00,63.3,54.9,29.85,SE,124,2.7,3.6,74,0.00,,CLR,0.00,VWS V14.01,2013-08-26 11:36:00,
2013-08-26 04:42:00,63.5,55.4,29.85,SE,124,3.1,3.6,75,0.00,,CLR,0.00,VWS V14.01,2013-08-26 11:42:00,
2013-08-26 04:47:00,63.5,55.4,29.85,SE,124,0.0,0.0,75,0.00,,CLR,0.00,VWS V14.01,2013-08-26 11:47:00,
2013-08-26 04:52:00,63.5,55.4,29.85,SE,124,0.0,0.0,75,0.00,,CLR,0.00,VWS V14.01,2013-08-26 11:52:00,
2013-08-26 04:57:00,63.5,55.4,29.85,SE,124,0.0,0.0,75,0.00,,CLR,0.00,VWS V14.01,2013-08-26 11:57:00,
2013-08-26 05:03:00,63.5,55.4,29.83,SE,124,3.6,3.6,75,0.00,,CLR,0.00,VWS V14.01,2013-08-26 12:03:00,
2013-08-26 05:08:00,63.5,55.4,29.83,SE,124,0.0,3.1,75,0.00,,CLR,0.00,VWS V14.01,2013-08-26 12:08:00,
2013-08-26 05:14:00,63.5,55.4,29.83,SE,124,0.0,0.0,75,0.00,,CLR,0.00,VWS V14.01,2013-08-26 12:14:00,
2013-08-26 05:19:00,63.5,55.4,29.85,SE,124,3.1,3.6,75,0.00,,CLR,0.00,VWS V14.01,2013-08-26 12:19:00,
2013-08-26 05:25:00,63.5,55.4,29.85,SE,124,0.0,0.0,75,0.00,,CLR,0.00,VWS V14.01,2013-08-26 12:25:00,
2013-08-26 05:30:00,63.5,55.4,29.85,SE,124,0.0,0.0,75,0.00,,CLR,0.00,VWS V14.01,2013-08-26 12:30:00,
2013-08-26 05:36:00,63.5,55.4,29.85,SE,124,0.0,0.0,75,0.00,,CLR,0.00,VWS V14.01,2013-08-26 12:36:00,
2013-08-26 05:42:00,63.5,55.4,29.85,SE,124,0.0,0.0,75,0.00,,CLR,0.00,VWS V14.01,2013-08-26 12:42:00,
2013-08-26 05:47:00,63.5,55.4,29.85,ESE,123,0.0,0.0,75,0.00,,CLR,0.00,VWS V14.01,2013-08-26 12:47:00,
2013-08-26 05:52:00,63.5,55.1,29.85,SE,124,0.0,0.0,74,0.00,,CLR,0.00,VWS V14.01,2013-08-26 12:52:00,
2013-08-26 05:57:00,63.5,55.1,29.85,SE,124,0.0,0.0,74,0.00,,CLR,0.00,VWS V14.01,2013-08-26 12:57:00,
2013-08-26 06:02:00,63.3,54.9,29.85,SE,124,0.0,0.0,74,0.00,,CLR,0.00,VWS V14.01,2013-08-26 13:02:00,
2013-08-26 06:07:00,63.3,54.9,29.85,ESE,123,0.0,0.0,74,0.00,,CLR,0.00,VWS V14.01,2013-08-26 13:07:00,
2013-08-26 06:13:00,63.3,54.9,29.85,ESE,123,0.0,0.0,74,0.00,,CLR,0.00,VWS V14.01,2013-08-26 13:13:00,
2013-08-26 06:18:00,63.5,55.1,29.85,SE,124,0.0,0.0,74,0.00,,CLR,0.00,VWS V14.01,2013-08-26 13:18:00,
2013-08-26 06:23:00,63.5,54.7,29.85,SE,124,0.0,0.0,73,0.00,,CLR,0.00,VWS V14.01,2013-08-26 13:23:00,
2013-08-26 06:28:00,63.7,54.9,29.85,SE,124,0.0,0.0,73,0.00,,CLR,0.00,VWS V14.01,2013-08-26 13:28:00,
2013-08-26 06:34:00,63.7,54.9,29.85,SE,124,0.0,0.0,73,0.00,,CLR,0.00,VWS V14.01,2013-08-26 13:34:00,
2013-08-26 06:39:00,63.7,54.5,29.85,ESE,123,0.0,0.0,72,0.00,,CLR,0.00,VWS V14.01,2013-08-26 13:39:00,
2013-08-26 06:44:00,63.5,54.3,29.85,SE,124,0.0,0.0,72,0.00,,CLR,0.00,VWS V14.01,2013-08-26 13:44:00,
2013-08-26 06:49:00,63.5,54.3,29.85,SE,124,0.0,0.0,72,0.00,,CLR,0.00,VWS V14.01,2013-08-26 13:49:00,
2013-08-26 06:55:00,63.5,54.3,29.85,ESE,123,0.0,0.0,72,0.00,,CLR,0.00,VWS V14.01,2013-08-26 13:55:00,
2013-08-26 07:00:00,63.5,54.3,29.85,SE,124,0.0,0.0,72,0.00,,CLR,0.00,VWS V14.01,2013-08-26 14:00:00,
2013-08-26 07:05:00,63.7,54.5,29.85,SE,124,0.0,0.0,72,0.00,,CLR,0.00,VWS V14.01,2013-08-26 14:05:00,
2013-08-26 07:10:00,63.8,55.0,29.85,SE,124,0.0,0.0,73,0.00,,CLR,0.00,VWS V14.01,2013-08-26 14:10:00,
2013-08-26 07:15:00,64.0,55.2,29.85,SE,124,0.0,0.0,73,0.00,,CLR,0.00,VWS V14.01,2013-08-26 14:15:00,
2013-08-26 07:21:00,64.4,55.2,29.85,SE,124,3.1,3.1,72,0.00,,CLR,0.00,VWS V14.01,2013-08-26 14:21:00,
2013-08-26 07:26:00,64.6,55.3,29.85,SE,128,3.1,4.0,72,0.00,,CLR,0.00,VWS V14.01,2013-08-26 14:26:00,
2013-08-26 07:31:00,64.7,55.1,29.85,SE,128,2.7,2.7,71,0.00,,CLR,0.00,VWS V14.01,2013-08-26 14:31:00,
2013-08-26 07:36:00,65.1,55.1,29.85,SE,129,3.6,4.0,70,0.00,,CLR,0.00,VWS V14.01,2013-08-26 14:36:00,
2013-08-26 07:42:00,65.6,54.8,29.85,SE,129,2.7,2.7,68,0.00,,CLR,0.00,VWS V14.01,2013-08-26 14:42:00,
2013-08-26 07:48:00,66.0,54.7,29.85,SE,129,0.0,0.0,67,0.00,,CLR,0.00,VWS V14.01,2013-08-26 14:48:00,
2013-08-26 07:53:00,66.4,54.7,29.85,SE,128,2.7,2.7,66,0.00,,CLR,0.00,VWS V14.01,2013-08-26 14:53:00,
2013-08-26 07:58:00,66.5,54.0,29.85,SE,128,0.0,0.0,64,0.00,,CLR,0.00,VWS V14.01,2013-08-26 14:58:00,
2013-08-26 08:03:00,67.3,54.2,29.85,SE,129,0.0,0.0,63,0.00,,CLR,0.00,VWS V14.01,2013-08-26 15:03:00,
2013-08-26 08:09:00,67.6,52.3,29.85,SE,129,2.7,2.7,58,0.00,,CLR,0.00,VWS V14.01,2013-08-26 15:09:00,
2013-08-26 08:14:00,68.3,52.0,29.85,SE,128,0.0,0.0,56,0.00,,CLR,0.00,VWS V14.01,2013-08-26 15:14:00,
2013-08-26 08:20:00,69.1,52.2,29.85,SE,129,0.0,0.0,55,0.00,,CLR,0.00,VWS V14.01,2013-08-26 15:20:00,
2013-08-26 08:26:00,69.4,51.0,29.85,SE,128,0.0,0.0,52,0.00,,CLR,0.00,VWS V14.01,2013-08-26 15:26:00,
2013-08-26 08:31:00,70.0,48.2,29.85,SE,129,2.7,2.7,46,0.00,,CLR,0.00,VWS V14.01,2013-08-26 15:31:00,
2013-08-26 08:36:00,70.5,45.0,29.85,SE,128,2.2,4.0,40,0.00,,CLR,0.00,VWS V14.01,2013-08-26 15:36:00,
2013-08-26 08:41:00,71.2,43.6,29.85,SE,129,0.0,3.1,37,0.00,,CLR,0.00,VWS V14.01,2013-08-26 15:41:00,
2013-08-26 08:47:00,71.9,43.6,29.85,SE,129,0.0,0.0,36,0.00,,CLR,0.00,VWS V14.01,2013-08-26 15:47:00,
2013-08-26 08:52:00,72.5,41.8,29.85,SE,129,3.1,3.1,33,0.00,,CLR,0.00,VWS V14.01,2013-08-26 15:52:00,
2013-08-26 08:58:00,73.2,41.6,29.85,SE,129,0.0,4.0,32,0.00,,CLR,0.00,VWS V14.01,2013-08-26 15:58:00,
2013-08-26 09:03:00,73.7,42.1,29.85,SE,129,0.0,0.0,32,0.00,,CLR,0.00,VWS V14.01,2013-08-26 16:03:00,
2013-08-26 09:09:00,74.6,42.0,29.85,SE,130,0.0,2.7,31,0.00,,CLR,0.00,VWS V14.01,2013-08-26 16:09:00,
2013-08-26 09:14:00,75.4,41.8,29.85,SSW,197,3.1,4.0,30,0.00,,CLR,0.00,VWS V14.01,2013-08-26 16:14:00,
2013-08-26 09:20:00,75.7,40.3,29.85,WNW,284,4.9,4.9,28,0.00,,CLR,0.00,VWS V14.01,2013-08-26 16:20:00,
2013-08-26 09:26:00,76.4,41.0,29.85,West,280,4.0,5.8,28,0.00,,CLR,0.00,VWS V14.01,2013-08-26 16:26:00,
2013-08-26 09:31:00,76.8,39.3,29.85,WNW,293,4.9,5.4,26,0.00,,CLR,0.00,VWS V14.01,2013-08-26 16:31:00,
2013-08-26 09:36:00,77.5,37.9,29.85,WNW,288,0.0,3.6,24,0.00,,CLR,0.00,VWS V14.01,2013-08-26 16:36:00,
2013-08-26 09:41:00,78.1,35.0,29.85,West,268,3.1,4.9,21,0.00,,CLR,0.00,VWS V14.01,2013-08-26 16:41:00,
2013-08-26 09:47:00,78.4,35.3,29.85,WSW,248,4.0,4.0,21,0.00,,CLR,0.00,VWS V14.01,2013-08-26 16:47:00,
2013-08-26 09:52:00,79.5,35.0,29.85,NNW,328,0.0,2.7,20,0.00,,CLR,0.00,VWS V14.01,2013-08-26 16:52:00,
2013-08-26 09:57:00,80.6,34.6,29.85,WNW,290,3.1,4.0,19,0.00,,CLR,0.00,VWS V14.01,2013-08-26 16:57:00,
2013-08-26 10:02:00,81.7,35.4,29.85,SW,224,4.0,4.0,19,0.00,,CLR,0.00,VWS V14.01,2013-08-26 17:02:00,
2013-08-26 10:07:00,82.4,34.7,29.85,WSW,237,2.2,3.6,18,0.00,,CLR,0.00,VWS V14.01,2013-08-26 17:07:00,
2013-08-26 10:12:00,83.5,35.5,29.85,West,278,2.2,2.2,18,0.00,,CLR,0.00,VWS V14.01,2013-08-26 17:12:00,
2013-08-26 10:18:00,83.8,32.9,29.85,WSW,256,5.4,5.4,16,0.00,,CLR,0.00,VWS V14.01,2013-08-26 17:18:00,
2013-08-26 10:23:00,84.0,33.0,29.85,WNW,283,3.1,4.0,16,0.00,,CLR,0.00,VWS V14.01,2013-08-26 17:23:00,
2013-08-26 10:29:00,85.1,28.8,29.85,WNW,300,2.7,5.8,13,0.00,,CLR,0.00,VWS V14.01,2013-08-26 17:29:00,
2013-08-26 10:34:00,86.0,29.5,29.85,NNW,334,2.7,3.6,13,0.00,,CLR,0.00,VWS V14.01,2013-08-26 17:34:00,
2013-08-26 10:40:00,86.7,30.0,29.85,NNW,345,3.1,3.6,13,0.00,,CLR,0.00,VWS V14.01,2013-08-26 17:40:00,
2013-08-26 10:46:00,87.4,30.6,29.85,West,271,3.6,3.6,13,0.00,,CLR,0.00,VWS V14.01,2013-08-26 17:46:00,
2013-08-26 10:51:00,87.2,30.5,29.85,WSW,253,3.1,3.1,13,0.00,,CLR,0.00,VWS V14.01,2013-08-26 17:51:00,
2013-08-26 10:57:00,88.1,29.2,29.85,West,268,4.0,4.0,12,0.00,,CLR,0.00,VWS V14.01,2013-08-26 17:57:00,
2013-08-26 11:02:00,89.0,35.4,29.85,SSE,158,2.7,4.9,15,0.00,,CLR,0.00,VWS V14.01,2013-08-26 18:02:00,
2013-08-26 11:08:00,89.0,35.4,29.85,SSE,162,0.0,4.9,15,0.00,,CLR,0.00,VWS V14.01,2013-08-26 18:08:00,
2013-08-26 11:14:00,89.4,34.0,29.85,South,179,4.0,5.4,14,0.00,,CLR,0.00,VWS V14.01,2013-08-26 18:14:00,
2013-08-26 11:19:00,89.8,39.2,29.85,SE,135,0.0,2.7,17,0.00,,CLR,0.00,VWS V14.01,2013-08-26 18:19:00,
2013-08-26 11:24:00,89.9,34.4,29.85,SE,137,0.0,4.0,14,0.00,,CLR,0.00,VWS V14.01,2013-08-26 18:24:00,
2013-08-26 11:29:00,90.1,34.5,29.85,SE,146,2.7,5.4,14,0.00,,CLR,0.00,VWS V14.01,2013-08-26 18:29:00,
2013-08-26 11:35:00,90.3,34.7,29.85,SSE,151,3.1,5.8,14,0.00,,CLR,0.00,VWS V14.01,2013-08-26 18:35:00,
2013-08-26 11:40:00,89.8,34.3,29.85,SSE,158,3.6,6.3,14,0.00,,CLR,0.00,VWS V14.01,2013-08-26 18:40:00,
2013-08-26 11:46:00,89.0,35.4,29.83,SE,135,7.6,7.6,15,0.00,,CLR,0.00,VWS V14.01,2013-08-26 18:46:00,
2013-08-26 11:51:00,89.6,34.1,29.83,SSW,208,4.0,4.0,14,0.00,,CLR,0.00,VWS V14.01,2013-08-26 18:51:00,
2013-08-26 11:56:00,89.9,34.4,29.83,SE,139,3.1,4.0,14,0.00,,CLR,0.00,VWS V14.01,2013-08-26 18:56:00,
2013-08-26 12:01:00,90.7,31.1,29.83,SSE,147,3.6,4.0,12,0.00,,CLR,0.00,VWS V14.01,2013-08-26 19:01:00,
2013-08-26 12:07:00,90.3,30.9,29.83,SE,141,3.1,5.4,12,0.00,,CLR,0.00,VWS V14.01,2013-08-26 19:07:00,
2013-08-26 12:12:00,91.6,29.7,29.83,SW,220,2.7,5.8,11,0.00,,CLR,0.00,VWS V14.01,2013-08-26 19:12:00,
2013-08-26 12:17:00,91.7,29.8,29.83,SSW,207,3.6,5.8,11,0.00,,CLR,0.00,VWS V14.01,2013-08-26 19:17:00,
2013-08-26 12:22:00,92.5,30.4,29.83,SW,215,3.1,4.5,11,0.00,,CLR,0.00,VWS V14.01,2013-08-26 19:22:00,
2013-08-26 12:28:00,92.8,25.8,29.83,SE,126,3.6,5.4,9,0.00,,CLR,0.00,VWS V14.01,2013-08-26 19:28:00,
2013-08-26 12:33:00,93.2,26.0,29.83,SSE,168,3.6,5.4,9,0.00,,CLR,0.00,VWS V14.01,2013-08-26 19:33:00,
2013-08-26 12:39:00,93.4,26.2,29.83,SSE,163,4.0,4.9,9,0.00,,CLR,0.00,VWS V14.01,2013-08-26 19:39:00,
2013-08-26 12:44:00,91.7,25.0,29.83,West,281,5.8,5.8,9,0.00,,CLR,0.00,VWS V14.01,2013-08-26 19:44:00,
2013-08-26 12:50:00,92.8,25.8,29.83,SSE,158,0.0,4.5,9,0.00,,CLR,0.00,VWS V14.01,2013-08-26 19:50:00,
2013-08-26 12:55:00,94.4,27.0,29.83,SSW,193,4.9,5.4,9,0.00,,CLR,0.00,VWS V14.01,2013-08-26 19:55:00,
2013-08-26 13:00:00,95.0,24.5,29.83,SSW,211,0.0,3.1,8,0.00,,CLR,0.00,VWS V14.01,2013-08-26 20:00:00,
2013-08-26 13:06:00,95.2,24.7,29.83,SSW,212,4.9,5.4,8,0.00,,CLR,0.00,VWS V14.01,2013-08-26 20:06:00,
2013-08-26 13:11:00,94.6,27.1,29.83,SSW,196,6.7,6.7,9,0.00,,CLR,0.00,VWS V14.01,2013-08-26 20:11:00,
2013-08-26 13:17:00,93.7,26.4,29.80,SSE,151,3.6,6.3,9,0.00,,CLR,0.00,VWS V14.01,2013-08-26 20:17:00,
2013-08-26 13:22:00,94.3,26.9,29.80,SSW,203,7.6,8.1,9,0.00,,CLR,0.00,VWS V14.01,2013-08-26 20:22:00,
2013-08-26 13:28:00,94.3,26.9,29.80,SSE,157,4.9,6.3,9,0.00,,CLR,0.00,VWS V14.01,2013-08-26 20:28:00,
2013-08-26 13:33:00,92.5,25.5,29.80,South,174,5.8,8.3,9,0.00,,CLR,0.00,VWS V14.01,2013-08-26 20:33:00,
2013-08-26 13:38:00,93.5,26.3,29.80,SW,227,2.7,6.3,9,0.00,,CLR,0.00,VWS V14.01,2013-08-26 20:38:00,
2013-08-26 13:44:00,93.5,26.3,29.80,SE,145,3.6,4.0,9,0.00,,CLR,0.00,VWS V14.01,2013-08-26 20:44:00,
2013-08-26 13:50:00,93.9,26.6,29.80,SSW,198,4.0,6.3,9,0.00,,CLR,0.00,VWS V14.01,2013-08-26 20:50:00,
2013-08-26 13:55:00,93.9,26.6,29.80,SSW,200,6.3,6.3,9,0.00,,CLR,0.00,VWS V14.01,2013-08-26 20:55:00,
2013-08-26 14:01:00,93.7,16.9,29.80,SSW,204,3.1,5.4,6,0.00,,CLR,0.00,VWS V14.01,2013-08-26 21:01:00,
2013-08-26 14:06:00,94.1,17.1,29.80,South,184,6.3,7.6,6,0.00,,CLR,0.00,VWS V14.01,2013-08-26 21:06:00,
2013-08-26 14:12:00,93.2,16.5,29.80,SSE,151,5.8,6.3,6,0.00,,CLR,0.00,VWS V14.01,2013-08-26 21:12:00,
2013-08-26 14:18:00,93.2,26.0,29.80,SSE,150,4.9,5.8,9,0.00,,CLR,0.00,VWS V14.01,2013-08-26 21:18:00,
2013-08-26 14:24:00,94.1,17.1,29.80,SSW,210,4.0,6.3,6,0.00,,CLR,0.00,VWS V14.01,2013-08-26 21:24:00,
2013-08-26 14:29:00,93.7,16.9,29.80,SSW,206,3.1,5.4,6,0.00,,CLR,0.00,VWS V14.01,2013-08-26 21:29:00,
2013-08-26 14:35:00,93.9,26.6,29.80,South,189,5.8,6.3,9,0.00,,CLR,0.00,VWS V14.01,2013-08-26 21:35:00,
2013-08-26 14:40:00,92.8,25.8,29.80,SW,214,2.7,3.6,9,0.00,,CLR,0.00,VWS V14.01,2013-08-26 21:40:00,
2013-08-26 14:45:00,93.0,25.9,29.77,SSW,213,3.6,5.8,9,0.00,,CLR,0.00,VWS V14.01,2013-08-26 21:45:00,
2013-08-26 14:50:00,93.4,26.2,29.77,SSE,155,3.1,8.3,9,0.00,,CLR,0.00,VWS V14.01,2013-08-26 21:50:00,
2013-08-26 14:55:00,93.2,26.0,29.77,SSW,202,7.6,7.6,9,0.00,,CLR,0.00,VWS V14.01,2013-08-26 21:55:00,
2013-08-26 15:00:00,93.4,26.2,29.77,South,176,6.7,6.7,9,0.00,,CLR,0.00,VWS V14.01,2013-08-26 22:00:00,
2013-08-26 15:06:00,93.9,26.6,29.77,SSW,195,4.9,5.4,9,0.00,,CLR,0.00,VWS V14.01,2013-08-26 22:06:00,
2013-08-26 15:11:00,94.4,27.0,29.77,South,186,4.0,6.3,9,0.00,,CLR,0.00,VWS V14.01,2013-08-26 22:11:00,
2013-08-26 15:17:00,94.4,27.0,29.77,SE,137,3.6,5.8,9,0.00,,CLR,0.00,VWS V14.01,2013-08-26 22:17:00,
2013-08-26 15:22:00,94.1,17.1,29.77,SE,143,7.6,7.6,6,0.00,,CLR,0.00,VWS V14.01,2013-08-26 22:22:00,
2013-08-26 15:27:00,94.1,17.1,29.77,SW,220,4.0,5.4,6,0.00,,CLR,0.00,VWS V14.01,2013-08-26 22:27:00,
2013-08-26 15:32:00,94.1,17.1,29.77,SSW,204,5.8,6.3,6,0.00,,CLR,0.00,VWS V14.01,2013-08-26 22:32:00,
2013-08-26 15:38:00,93.0,16.4,29.77,SSW,196,7.6,7.6,6,0.00,,CLR,0.00,VWS V14.01,2013-08-26 22:38:00,
2013-08-26 15:43:00,93.0,16.4,29.77,WSW,251,5.8,5.8,6,0.00,,CLR,0.00,VWS V14.01,2013-08-26 22:43:00,
2013-08-26 15:49:00,93.4,16.6,29.77,South,191,4.0,5.8,6,0.00,,CLR,0.00,VWS V14.01,2013-08-26 22:49:00,
2013-08-26 15:55:00,92.5,16.0,29.77,SSE,164,3.6,6.3,6,0.00,,CLR,0.00,VWS V14.01,2013-08-26 22:55:00,
2013-08-26 16:00:00,92.1,15.7,29.77,South,185,4.5,5.8,6,0.00,,CLR,0.00,VWS V14.01,2013-08-26 23:00:00,
2013-08-26 16:06:00,91.6,15.3,29.77,South,189,4.9,6.3,6,0.00,,CLR,0.00,VWS V14.01,2013-08-26 23:06:00,
2013-08-26 16:12:00,91.7,15.5,29.77,South,182,2.2,5.8,6,0.00,,CLR,0.00,VWS V14.01,2013-08-26 23:12:00,
2013-08-26 16:17:00,92.6,16.1,29.77,West,265,3.1,3.1,6,0.00,,CLR,0.00,VWS V14.01,2013-08-26 23:17:00,
2013-08-26 16:23:00,90.5,18.1,29.77,WNW,287,5.8,5.8,7,0.00,,CLR,0.00,VWS V14.01,2013-08-26 23:23:00,
2013-08-26 16:28:00,89.6,17.5,29.77,NW,323,5.4,8.3,7,0.00,,CLR,0.00,VWS V14.01,2013-08-26 23:28:00,
2013-08-26 16:34:00,89.2,17.2,29.77,WNW,300,5.8,5.8,7,0.00,,CLR,0.00,VWS V14.01,2013-08-26 23:34:00,
2013-08-26 16:39:00,88.0,16.3,29.77,NW,306,6.3,6.3,7,0.00,,CLR,0.00,VWS V14.01,2013-08-26 23:39:00,
2013-08-26 16:45:00,86.2,18.0,29.77,West,273,7.6,8.7,8,0.00,,CLR,0.00,VWS V14.01,2013-08-26 23:45:00,
2013-08-26 16:50:00,86.7,18.4,29.77,WNW,290,5.8,6.3,8,0.00,,CLR,0.00,VWS V14.01,2013-08-26 23:50:00,
2013-08-26 16:55:00,84.9,17.1,29.77,West,263,7.2,7.2,8,0.00,,CLR,0.00,VWS V14.01,2013-08-26 23:55:00,
2013-08-26 17:01:00,84.2,16.6,29.77,WSW,257,8.7,8.7,8,0.00,,CLR,0.00,VWS V14.01,2013-08-27 00:01:00,
2013-08-26 17:06:00,83.8,23.8,29.77,WNW,289,6.3,8.3,11,0.00,,BKN110,0.00,VWS V14.01,2013-08-27 00:06:00,
2013-08-26 17:12:00,83.6,16.2,29.77,West,280,7.6,11.9,8,0.00,,BKN110,0.00,VWS V14.01,2013-08-27 00:12:00,
2013-08-26 17:17:00,82.9,15.6,29.74,West,266,8.1,8.7,8,0.00,,BKN110,0.00,VWS V14.01,2013-08-27 00:17:00,
2013-08-26 17:23:00,82.7,15.5,29.74,West,271,8.1,8.1,8,0.00,,BKN110,0.00,VWS V14.01,2013-08-27 00:23:00,
2013-08-26 17:29:00,83.3,15.9,29.74,West,279,4.0,6.3,8,0.00,,BKN110,0.00,VWS V14.01,2013-08-27 00:29:00,
2013-08-26 17:34:00,82.6,15.4,29.74,WNW,301,4.0,8.3,8,0.00,,BKN110,0.00,VWS V14.01,2013-08-27 00:34:00,
2013-08-26 17:39:00,81.7,17.4,29.74,NW,307,6.3,8.1,9,0.00,,BKN110,0.00,VWS V14.01,2013-08-27 00:39:00,
2013-08-26 17:44:00,80.9,16.9,29.74,NNW,335,8.1,11.0,9,0.00,,BKN110,0.00,VWS V14.01,2013-08-27 00:44:00,
2013-08-26 17:49:00,80.8,16.7,29.77,WNW,289,5.4,6.3,9,0.00,,BKN110,0.00,VWS V14.01,2013-08-27 00:49:00,
2013-08-26 17:55:00,80.2,16.3,29.77,West,264,8.1,8.1,9,0.00,,BKN110,0.00,VWS V14.01,2013-08-27 00:55:00,
2013-08-26 18:01:00,80.0,16.2,29.77,West,268,3.6,5.4,9,0.00,,BKN110,0.00,VWS V14.01,2013-08-27 01:01:00,
2013-08-26 18:06:00,79.5,15.8,29.77,WSW,254,8.7,8.7,9,0.00,,BKN110,0.00,VWS V14.01,2013-08-27 01:06:00,
2013-08-26 18:11:00,80.2,16.3,29.77,WNW,301,4.0,7.6,9,0.00,,BKN110,0.00,VWS V14.01,2013-08-27 01:11:00,
2013-08-26 18:16:00,80.4,16.5,29.74,NNW,333,5.4,6.3,9,0.00,,BKN110,0.00,VWS V14.01,2013-08-27 01:16:00,
2013-08-26 18:21:00,79.5,15.8,29.74,WNW,302,5.4,8.1,9,0.00,,BKN110,0.00,VWS V14.01,2013-08-27 01:21:00,
2013-08-26 18:26:00,79.9,16.0,29.74,West,270,4.0,6.3,9,0.00,,BKN110,0.00,VWS V14.01,2013-08-27 01:26:00,
2013-08-26 18:32:00,79.5,15.8,29.74,NNW,341,7.6,8.7,9,0.00,,BKN110,0.00,VWS V14.01,2013-08-27 01:32:00,
2013-08-26 18:37:00,79.0,15.4,29.74,NW,316,4.9,8.1,9,0.00,,FEW110,0.00,VWS V14.01,2013-08-27 01:37:00,
2013-08-26 18:42:00,78.8,15.2,29.74,NNW,333,7.6,7.6,9,0.00,,FEW110,0.00,VWS V14.01,2013-08-27 01:42:00,
2013-08-26 18:47:00,78.6,15.1,29.77,West,280,4.9,8.1,9,0.00,,FEW110,0.00,VWS V14.01,2013-08-27 01:47:00,
2013-08-26 18:53:00,77.7,16.8,29.77,West,268,8.3,8.7,10,0.00,,FEW110,0.00,VWS V14.01,2013-08-27 01:53:00,
2013-08-26 18:58:00,77.5,16.7,29.77,West,281,4.9,8.7,10,0.00,,FEW110,0.00,VWS V14.01,2013-08-27 01:58:00,
2013-08-26 19:04:00,77.3,16.6,29.74,West,259,6.3,7.6,10,0.00,,FEW110,0.00,VWS V14.01,2013-08-27 02:04:00,
2013-08-26 19:09:00,77.2,16.4,29.74,West,266,5.8,5.8,10,0.00,,FEW110,0.00,VWS V14.01,2013-08-27 02:09:00,
2013-08-26 19:14:00,76.8,16.2,29.74,West,266,4.0,5.4,10,0.00,,FEW110,0.00,VWS V14.01,2013-08-27 02:14:00,
2013-08-26 19:19:00,76.8,16.2,29.77,West,272,2.2,5.4,10,0.00,,FEW110,0.00,VWS V14.01,2013-08-27 02:19:00,
2013-08-26 19:25:00,75.9,15.5,29.77,West,278,5.8,8.3,10,0.00,,FEW110,0.00,VWS V14.01,2013-08-27 02:25:00,
2013-08-26 19:30:00,75.9,21.6,29.77,WNW,289,4.0,8.1,13,0.00,,FEW110,0.00,VWS V14.01,2013-08-27 02:30:00,
2013-08-26 19:36:00,75.4,21.1,29.77,SW,230,8.1,8.3,13,0.00,,FEW110,0.00,VWS V14.01,2013-08-27 02:36:00,
2013-08-26 19:41:00,75.2,21.0,29.77,NW,311,5.8,7.2,13,0.00,,FEW110,0.00,VWS V14.01,2013-08-27 02:41:00,
2013-08-26 19:47:00,74.8,20.7,29.77,SW,235,4.0,6.3,13,0.00,,FEW110,0.00,VWS V14.01,2013-08-27 02:47:00,
2013-08-26 19:52:00,74.6,20.6,29.77,WNW,295,6.7,6.7,13,0.00,,FEW110,0.00,VWS V14.01,2013-08-27 02:52:00,
2013-08-26 19:57:00,74.6,24.0,29.77,WNW,290,3.6,6.3,15,0.00,,FEW110,0.00,VWS V14.01,2013-08-27 02:57:00,
2013-08-26 20:03:00,74.5,23.8,29.77,WSW,252,2.7,5.4,15,0.00,,FEW110,0.00,VWS V14.01,2013-08-27 03:03:00,
2013-08-26 20:08:00,74.5,28.2,29.77,WNW,297,0.0,0.0,18,0.00,,FEW110,0.00,VWS V14.01,2013-08-27 03:08:00,
2013-08-26 20:14:00,74.5,28.2,29.77,West,278,0.0,3.6,18,0.00,,FEW110,0.00,VWS V14.01,2013-08-27 03:14:00,
2013-08-26 20:19:00,74.3,28.1,29.77,NW,322,2.7,4.0,18,0.00,,FEW110,0.00,VWS V14.01,2013-08-27 03:19:00,
2013-08-26 20:25:00,74.3,28.1,29.77,NNW,342,3.1,4.0,18,0.00,,FEW110,0.00,VWS V14.01,2013-08-27 03:25:00,
2013-08-26 20:30:00,73.9,23.4,29.77,NW,318,5.4,5.8,15,0.00,,FEW110,0.00,VWS V14.01,2013-08-27 03:30:00,
2013-08-26 20:35:00,73.7,27.6,29.77,WNW,282,2.7,4.0,18,0.00,,CLR,0.00,VWS V14.01,2013-08-27 03:35:00,
2013-08-26 20:41:00,73.7,27.6,29.77,North,350,2.7,4.0,18,0.00,,CLR,0.00,VWS V14.01,2013-08-27 03:41:00,
2013-08-26 20:46:00,73.6,30.1,29.77,WNW,303,2.2,4.9,20,0.00,,CLR,0.00,VWS V14.01,2013-08-27 03:46:00,
2013-08-26 20:52:00,73.6,31.3,29.77,WSW,258,0.0,0.0,21,0.00,,CLR,0.00,VWS V14.01,2013-08-27 03:52:00,
2013-08-26 20:57:00,73.6,31.3,29.77,West,272,3.1,3.6,21,0.00,,CLR,0.00,VWS V14.01,2013-08-27 03:57:00,
2013-08-26 21:01:00,73.4,31.1,29.80,West,276,3.6,3.6,21,0.00,,CLR,0.00,VWS V14.01,2013-08-27 04:01:00,
2013-08-26 21:02:00,73.4,31.1,29.80,WSW,257,3.1,3.6,21,0.00,,CLR,0.00,VWS V14.01,2013-08-27 04:02:00,
2013-08-26 21:04:00,73.4,31.1,29.80,West,265,3.1,3.6,21,0.00,,CLR,0.00,VWS V14.01,2013-08-27 04:04:00,
2013-08-26 21:10:00,73.4,31.1,29.80,WSW,244,0.0,0.0,21,0.00,,CLR,0.00,VWS V14.01,2013-08-27 04:10:00,
2013-08-26 21:15:00,73.4,32.3,29.80,WSW,244,0.0,0.0,22,0.00,,CLR,0.00,VWS V14.01,2013-08-27 04:15:00,
2013-08-26 21:17:00,73.2,32.1,29.80,West,265,2.7,2.7,22,0.00,,CLR,0.00,VWS V14.01,2013-08-27 04:17:00,
2013-08-26 21:23:00,73.0,33.1,29.80,WNW,292,2.7,2.7,23,0.00,,CLR,0.00,VWS V14.01,2013-08-27 04:23:00,
2013-08-26 21:28:00,73.0,33.1,29.80,WNW,283,4.0,4.9,23,0.00,,CLR,0.00,VWS V14.01,2013-08-27 04:28:00,
2013-08-26 21:34:00,72.8,31.8,29.80,West,281,2.2,3.6,22,0.00,,CLR,0.00,VWS V14.01,2013-08-27 04:34:00,
2013-08-26 21:39:00,72.8,32.9,29.80,WNW,294,2.2,4.5,23,0.00,,CLR,0.00,VWS V14.01,2013-08-27 04:39:00,
2013-08-26 21:45:00,72.7,32.8,29.80,WNW,290,0.0,0.0,23,0.00,,SCT030,0.00,VWS V14.01,2013-08-27 04:45:00,
2013-08-26 21:50:00,72.5,33.7,29.80,West,273,2.7,2.7,24,0.00,,SCT030,0.00,VWS V14.01,2013-08-27 04:50:00,
2013-08-26 21:56:00,72.3,34.5,29.80,West,261,0.0,0.0,25,0.00,,SCT030,0.00,VWS V14.01,2013-08-27 04:56:00,
2013-08-26 22:01:00,72.3,34.5,29.80,West,264,0.0,0.0,25,0.00,,SCT030,0.00,VWS V14.01,2013-08-27 05:01:00,
2013-08-26 22:06:00,72.3,35.5,29.80,West,264,0.0,0.0,26,0.00,,SCT030,0.00,VWS V14.01,2013-08-27 05:06:00,
2013-08-26 22:12:00,72.1,36.3,29.80,WNW,298,0.0,0.0,27,0.00,,SCT030,0.00,VWS V14.01,2013-08-27 05:12:00,
2013-08-26 22:17:00,71.9,37.1,29.80,WNW,288,2.7,3.6,28,0.00,,SCT030,0.00,VWS V14.01,2013-08-27 05:17:00,
2013-08-26 22:23:00,71.9,37.1,29.80,NW,320,2.2,3.1,28,0.00,,SCT030,0.00,VWS V14.01,2013-08-27 05:23:00,
2013-08-26 22:28:00,71.8,37.8,29.80,NNW,327,2.2,3.1,29,0.00,,SCT030,0.00,VWS V14.01,2013-08-27 05:28:00,
2013-08-26 22:34:00,71.8,38.7,29.80,NW,311,0.0,0.0,30,0.00,,SCT030,0.00,VWS V14.01,2013-08-27 05:34:00,
2013-08-26 22:39:00,71.6,39.4,29.80,NW,325,0.0,0.0,31,0.00,,CLR,0.00,VWS V14.01,2013-08-27 05:39:00,
2013-08-26 22:45:00,71.4,40.0,29.77,West,271,2.7,2.7,32,0.00,,CLR,0.00,VWS V14.01,2013-08-27 05:45:00,
2013-08-26 22:51:00,71.4,40.0,29.77,NW,312,0.0,0.0,32,0.00,,CLR,0.00,VWS V14.01,2013-08-27 05:51:00,
2013-08-26 22:56:00,71.2,40.7,29.77,NW,309,4.0,4.0,33,0.00,,CLR,0.00,VWS V14.01,2013-08-27 05:56:00,
2013-08-26 23:01:00,71.2,40.7,29.77,WSW,250,0.0,0.0,33,0.00,,CLR,0.00,VWS V14.01,2013-08-27 06:01:00,
2013-08-26 23:07:00,71.0,40.5,29.77,NW,310,0.0,0.0,33,0.00,,CLR,0.00,VWS V14.01,2013-08-27 06:07:00,
2013-08-26 23:12:00,71.0,40.5,29.77,NW,309,0.0,0.0,33,0.00,,CLR,0.00,VWS V14.01,2013-08-27 06:12:00,
2013-08-26 23:18:00,70.9,40.4,29.77,NW,310,0.0,0.0,33,0.00,,CLR,0.00,VWS V14.01,2013-08-27 06:18:00,
2013-08-26 23:23:00,70.9,40.4,29.77,NW,310,0.0,0.0,33,0.00,,CLR,0.00,VWS V14.01,2013-08-27 06:23:00,
2013-08-26 23:29:00,70.9,41.1,29.77,WNW,288,0.0,3.1,34,0.00,,CLR,0.00,VWS V14.01,2013-08-27 06:29:00,
2013-08-26 23:34:00,70.9,41.9,29.77,WSW,256,0.0,2.2,35,0.00,,CLR,0.00,VWS V14.01,2013-08-27 06:34:00,
2013-08-26 23:39:00,70.7,41.7,29.77,West,274,0.0,0.0,35,0.00,,CLR,0.00,VWS V14.01,2013-08-27 06:39:00,
2013-08-26 23:44:00,70.7,41.7,29.77,West,272,0.0,0.0,35,0.00,,CLR,0.00,VWS V14.01,2013-08-27 06:44:00,
2013-08-26 23:49:00,70.7,41.7,29.77,SSW,206,0.0,0.0,35,0.00,,CLR,0.00,VWS V14.01,2013-08-27 06:49:00,
2013-08-26 23:55:00,70.5,41.6,29.77,SSW,206,0.0,0.0,35,0.00,,CLR,0.00,VWS V14.01,2013-08-27 06:55:00,